Theta_e
283 278 273 275 276 277 277 276 274 276 279 277 277 277 280 282 280 279 279 281 281 282 285 286 286 286 286 287 287 287 286 286 286 285 285 285 285 287 290 293 294 294 295 296
279 272 277 279 279 277 277 273 274 277 279 277 277 276 280 282 281 280 280 280 280 281 282 284 285 285 285 285 286 286 286 286 286 286 286 285 285 286 288 290 290 292 293 294
275 275 278 278 276 276 274 272 272 272 276 278 275 274 277 282 283 283 282 281 281 280 281 282 282 283 283 284 284 285 286 286 286 286 286 285 285 285 285 285 287 289 290 293
274 277 276 275 274 274 274 275 274 274 272 270 276 268 275 279 280 283 282 279 279 280 281 282 282 282 282 283 284 285 285 285 286 286 285 283 282 281 283 284 285 286 288 289
272 273 273 274 273 274 272 275 274 274 272 270 273 268 272 280 278 279 280 279 278 278 280 280 281 283 283 283 282 283 284 284 285 285 284 283 282 283 284 284 284 284 286 287
274 277 276 273 275 275 275 274 274 274 272 266 272 269 269 274 277 279 280 279 279 278 278 279 281 283 282 282 282 282 283 283 284 284 284 283 282 282 282 283 283 284 284 285
273 273 275 275 273 275 274 272 269 266 264 269 272 268 270 278 279 279 279 279 277 278 278 279 279 280 280 280 281 282 281 281 282 282 283 283 282 282 281 282 282 283 283 284
271 270 272 274 272 271 272 270 267 262 267 268 272 268 271 280 281 280 280 279 280 278 279 279 279 280 280 280 280 280 280 279 280 280 281 282 282 282 282 282 282 283 283 284
270 270 273 274 275 273 271 269 270 264 265 263 269 272 276 279 278 278 278 279 278 277 279 279 280 280 280 280 279 279 278 279 279 279 279 279 280 281 281 281 282 282 282 284
271 267 273 273 274 273 271 273 267 267 259 260 271 269 271 275 276 278 278 278 278 279 279 279 280 280 280 280 280 279 278 278 278 278 278 278 278 279 279 280 280 280 281 282
270 270 270 272 268 270 268 268 269 269 267 263 264 267 274 275 278 278 278 279 277 277 278 279 280 280 280 280 280 279 278 277 277 277 277 277 277 277 277 278 278 278 279 280
273 269 266 268 271 272 271 270 270 264 263 265 266 264 278 276 277 277 276 277 278 279 278 278 279 280 280 280 279 278 278 276 276 277 276 276 276 276 275 276 276 277 277 278
270 267 263 266 267 269 264 271 273 270 269 264 261 266 276 276 275 276 276 277 278 278 277 278 278 279 279 279 279 279 278 276 276 276 275 275 275 275 275 275 276 276 275 275
276 265 264 265 266 266 261 265 271 264 260 265 268 270 272 272 274 275 276 277 277 277 277 277 277 278 279 279 279 278 278 277 275 275 274 274 274 274 274 275 275 275 275 274
271 259 261 264 269 268 265 262 267 267 267 264 270 271 272 273 274 276 277 276 276 276 276 277 277 278 278 278 279 279 278 276 275 274 274 273 274 274 274 274 274 274 275 274
269 261 260 258 269 270 266 267 267 269 269 269 270 269 275 277 277 275 276 276 276 275 276 276 278 278 279 279 277 279 275 275 275 273 273 274 273 273 273 273 273 273 273 273
265 262 257 257 268 267 261 266 267 269 265 269 266 271 274 273 275 274 275 276 276 276 276 277 277 278 279 277 279 276 274 273 272 273 274 273 273 272 272 272 271 271 271 272
265 262 262 257 258 254 268 271 268 269 271 271 270 273 271 272 273 276 276 275 276 277 277 277 277 277 278 278 278 278 277 275 274 273 273 272 272 270 270 270 270 269 270 269
271 265 258 255 256 266 270 269 265 264 265 272 272 273 274 273 271 271 277 277 276 276 276 276 277 276 277 277 278 278 276 275 273 272 272 271 270 269 269 268 267 268 267 266
273 269 263 257 252 254 265 268 270 269 262 270 272 272 272 271 265 268 274 275 276 277 277 277 277 278 277 277 277 277 275 272 270 270 270 269 268 268 267 267 267 268 266 266
264 266 262 262 258 262 270 271 271 261 265 272 274 273 272 270 272 272 276 275 277 277 277 277 277 276 277 277 277 275 273 269 270 268 268 268 267 267 266 267 267 266 265 265
263 262 261 263 259 258 272 270 267 271 271 273 272 272 273 273 274 275 275 275 276 276 276 277 276 276 276 275 276 272 270 268 266 266 265 265 264 265 266 265 265 264 264 263
263 268 266 266 265 269 273 273 274 272 272 273 273 275 275 274 274 274 275 275 274 275 277 277 275 273 267 266 269 270 268 266 264 262 260 259 263 264 265 264 262 262 263 262
268 270 266 266 269 273 274 275 274 274 274 276 276 275 275 274 275 276 276 276 276 275 274 275 273 270 268 265 269 267 266 262 258 258 258 260 260 261 262 264 264 263 261 260
271 269 266 268 272 274 275 276 276 277 277 276 276 277 276 275 276 277 276 276 276 276 274 271 272 271 270 266 262 262 262 259 259 258 258 259 261 260 262 263 263 264 264 265
273 268 267 269 273 274 275 275 277 275 276 277 276 276 277 276 276 276 276 276 276 274 273 270 270 268 267 266 265 263 261 261 258 260 261 261 260 260 261 261 261 266 268 269
Wind_Speed
4 10 7 7 6 5 4 3 3 6 3 4 3 5 6 6 1 4 5 6 7 8 8 8 8 8 8 9 12 14 15 16 13 11 11 12 13 13 12 11 17 18 16 18
5 6 4 1 3 2 6 1 5 5 2 4 4 7 6 7 3 2 4 5 6 7 8 8 9 9 8 10 11 13 13 14 12 10 9 8 10 9 11 12 15 16 18 18
7 5 1 3 7 3 8 5 4 3 5 8 5 7 8 8 6 6 3 3 6 7 8 8 9 9 8 9 11 12 13 13 12 14 9 9 8 8 10 13 12 14 18 18
7 2 0 2 5 6 4 5 3 4 4 0 5 4 7 10 10 10 6 3 5 6 6 6 7 8 8 8 8 9 11 12 12 14 12 13 11 13 11 11 13 15 17 18
1 3 2 3 3 4 4 3 3 2 4 4 7 2 1 11 9 8 8 4 4 3 4 5 5 5 5 6 7 7 8 10 11 12 12 10 11 9 10 11 16 16 15 16
5 1 4 4 2 4 3 2 4 4 3 1 6 1 5 8 10 7 6 5 2 1 1 3 4 4 4 5 5 6 8 9 10 11 12 13 13 14 12 13 13 12 13 14
4 4 4 2 3 6 6 3 1 2 2 4 6 1 10 5 5 7 8 6 1 3 2 2 4 4 4 5 6 6 7 8 9 10 11 11 12 13 14 14 12 16 13 13
5 3 1 2 4 2 2 1 3 5 2 1 4 7 8 4 8 6 5 4 5 5 2 3 4 3 3 4 4 5 6 6 7 7 9 9 10 8 9 11 12 11 11 13
4 3 3 5 3 3 0 1 1 4 2 3 6 6 4 6 6 6 7 6 7 3 4 6 5 3 3 4 5 4 5 6 6 6 6 8 9 10 10 12 12 11 13 13
1 4 1 3 1 3 2 2 2 2 2 5 5 3 8 8 9 8 8 9 9 6 5 5 5 4 2 3 5 4 5 5 5 6 5 7 7 8 9 10 12 13 14 16
2 2 2 3 5 5 2 2 1 1 2 4 3 8 4 4 9 10 10 9 6 3 7 6 6 5 4 4 5 4 4 5 6 6 6 6 6 6 7 9 10 12 13 16
2 2 3 3 5 4 2 2 6 5 5 4 2 11 4 5 3 7 3 3 6 8 8 5 6 7 6 7 5 5 4 4 4 5 6 6 6 6 7 9 10 11 13 13
5 2 2 2 4 4 3 5 4 4 1 7 6 8 4 5 4 5 7 7 8 8 7 5 4 6 6 6 6 5 5 5 4 4 6 6 6 7 8 9 10 11 12 13
4 1 5 5 4 4 3 4 10 7 4 5 11 14 5 7 7 3 4 7 7 6 6 6 6 7 7 7 7 6 6 5 4 4 6 6 6 6 7 9 9 11 11 13
4 3 0 4 5 6 7 6 10 18 14 10 2 17 8 5 8 13 8 8 6 6 6 6 6 7 7 7 6 6 7 5 3 4 5 6 5 6 8 9 11 11 11 12
1 2 3 6 5 8 14 11 15 23 22 22 23 30 20 21 14 5 6 8 7 6 5 6 6 7 8 8 7 5 5 5 4 5 6 5 5 6 8 9 11 12 12 12
6 5 3 5 3 8 12 20 27 13 7 21 19 24 7 7 5 4 6 6 6 7 6 7 8 8 8 7 6 6 6 4 4 5 5 4 4 5 7 8 10 11 12 12
7 4 3 4 3 3 9 5 5 21 6 19 11 13 3 6 5 8 8 7 8 8 8 7 7 7 8 3 4 5 5 6 6 6 4 3 3 6 7 8 8 9 10 11
6 4 1 3 4 12 10 5 7 9 11 20 21 17 13 7 2 6 11 8 9 7 6 6 7 6 5 6 7 6 6 6 6 4 3 1 3 6 7 9 9 8 8 9
8 2 5 2 4 9 5 1 3 3 7 7 9 9 6 2 2 6 2 3 6 8 7 7 8 6 7 7 6 6 6 5 5 4 2 1 3 5 7 8 9 8 7 9
4 5 14 10 6 12 8 8 4 7 10 2 6 5 4 6 8 6 3 5 7 8 8 8 7 7 8 6 4 6 4 6 4 5 3 1 2 5 7 8 8 8 9 9
11 12 7 7 6 15 10 6 7 7 2 5 4 5 7 7 7 7 8 8 9 10 9 9 7 6 6 4 4 4 5 4 5 4 1 2 3 6 6 7 8 8 8 8
6 12 9 17 12 4 18 6 13 4 5 4 4 7 8 8 8 8 9 8 8 9 8 5 6 4 4 2 3 5 3 5 5 3 2 3 5 6 6 6 7 6 5 5
7 5 5 4 7 14 12 14 6 6 7 9 9 9 8 10 9 10 11 10 9 7 8 6 5 4 5 4 2 3 5 5 4 1 4 4 4 5 4 4 4 5 4 4
6 8 7 9 10 14 14 14 13 12 12 8 8 9 9 8 12 12 12 13 11 10 5 5 6 5 5 5 4 4 5 5 2 3 4 5 4 4 4 5 4 6 5 7
7 8 6 13 8 8 7 2 4 3 4 7 6 7 9 9 13 11 13 13 10 8 5 5 5 4 6 6 6 5 4 4 2 3 4 2 2 2 4 5 6 11 15 16
Wind_Direction
349 65 65 35 26 33 66 100 69 103 87 312 117 300 205 167 259 31 16 17 14 16 16 19 18 19 12 10 6 3 0 358 358 357 352 350 343 335 336 331 346 333 335 332
55 79 44 306 83 44 22 192 71 102 95 336 275 264 235 184 207 303 332 12 16 11 11 9 12 16 12 8 3 1 4 360 0 354 350 347 334 333 328 340 332 334 334 329
66 91 38 337 38 54 53 32 17 338 328 246 276 265 229 199 206 212 237 32 29 22 6 3 6 11 5 12 3 1 360 358 2 355 346 346 341 338 339 339 335 336 331 328
75 78 305 124 80 335 133 34 286 261 282 205 179 281 200 193 206 214 186 77 35 19 12 9 11 5 1 8 0 358 0 357 0 356 354 357 351 346 342 335 329 330 335 330
120 78 8 74 65 342 85 331 274 277 266 20 192 220 176 176 204 194 161 153 84 36 14 11 18 8 8 7 357 351 358 359 359 1 359 354 353 342 338 338 336 335 334 333
91 39 15 28 272 227 287 242 188 218 246 342 141 165 224 180 202 148 145 172 107 22 310 19 20 7 6 6 355 348 1 353 357 1 358 358 354 345 343 344 342 341 337 334
162 130 120 288 236 200 232 221 156 351 16 229 119 294 246 164 127 149 163 173 171 263 298 335 342 347 350 1 353 350 360 350 352 357 354 353 352 349 343 342 342 340 337 338
161 254 158 28 33 55 12 87 153 202 225 100 132 238 253 132 141 138 157 192 233 252 322 309 302 311 333 342 348 346 340 337 345 349 346 344 349 348 343 341 339 338 338 333
123 120 105 46 29 25 1 218 55 98 92 48 232 271 22 135 166 178 206 220 237 249 273 268 282 276 314 318 318 321 327 328 334 344 340 337 343 347 342 341 343 339 334 336
91 98 312 110 235 92 10 154 103 346 128 261 253 255 242 203 207 204 218 224 234 217 271 290 296 290 261 285 282 305 317 318 319 333 334 333 329 338 337 334 337 339 335 335
75 87 143 51 197 158 146 200 236 40 158 198 276 263 241 116 188 195 205 206 186 236 262 250 256 246 241 256 268 280 294 310 318 323 321 318 318 332 333 331 332 332 331 335
149 106 157 183 75 28 330 240 173 142 228 236 150 265 153 127 82 95 67 181 201 230 259 250 256 243 226 234 252 266 276 288 294 309 314 311 316 333 332 330 329 331 329 331
196 237 106 307 7 14 235 209 229 101 87 223 154 256 140 133 152 176 212 242 246 248 269 289 291 270 247 233 230 243 258 264 280 302 309 310 319 331 329 327 330 331 330 330
138 48 191 192 166 115 209 226 207 145 160 218 221 261 191 188 206 290 311 294 294 281 282 268 261 259 249 241 223 230 247 243 260 292 299 303 318 321 324 325 330 329 330 329
118 186 149 268 260 232 215 188 208 215 216 198 156 248 229 249 309 304 289 279 278 264 273 282 274 271 264 252 241 228 232 225 236 275 285 292 305 319 323 330 330 329 331 329
43 161 81 300 283 244 258 233 217 230 233 252 260 276 272 274 275 270 253 263 261 253 278 298 292 284 269 250 235 225 220 217 207 253 269 284 311 326 328 330 329 329 330 329
145 130 101 265 4 319 287 223 215 213 204 224 236 243 293 295 253 284 297 306 297 279 271 281 275 272 261 241 221 226 219 192 202 230 257 288 323 325 324 322 323 326 327 327
144 130 132 255 13 258 239 152 158 213 238 219 251 259 217 233 255 276 259 242 247 249 253 271 275 281 269 259 279 246 204 210 229 241 260 305 336 316 316 317 319 318 319 328
129 158 204 179 216 299 291 152 154 160 261 227 232 249 258 273 46 288 258 230 229 229 254 261 265 248 257 267 256 247 222 216 222 230 256 359 329 308 313 315 314 312 315 318
166 188 156 90 192 237 238 162 108 106 290 231 181 224 230 118 302 261 221 197 256 263 250 256 265 269 267 266 250 239 226 202 210 186 173 353 297 299 302 302 308 313 315 307
163 193 216 217 242 275 218 152 123 96 240 184 153 190 207 206 222 232 248 262 246 245 256 259 261 249 252 271 264 248 211 212 171 130 135 243 275 302 297 306 316 311 310 309
169 171 195 185 204 265 143 98 189 210 5 154 186 215 230 239 260 263 256 256 260 256 251 251 252 257 272 283 252 237 210 143 122 120 151 273 293 295 302 304 303 306 305 308
229 195 185 191 208 251 181 186 212 152 164 213 204 245 248 254 249 259 272 270 260 255 250 243 243 241 265 288 241 211 154 133 126 116 254 264 268 282 284 293 293 299 302 312
239 162 230 71 223 229 226 244 254 203 221 233 238 252 252 261 260 271 276 275 267 243 236 228 209 219 256 208 168 124 126 111 113 228 270 270 266 271 261 271 292 290 301 306
180 141 207 257 270 289 275 253 237 231 240 246 240 237 247 257 279 283 283 281 279 265 232 175 203 222 220 172 146 132 137 134 172 229 248 260 264 277 305 292 287 291 275 280
187 183 191 246 211 210 259 161 151 211 236 257 266 276 277 275 280 285 283 283 273 254 197 186 206 190 170 167 163 154 153 156 187 264 264 258 274 279 299 298 301 300 306 309